Limon, CO

8:17 AM MDT on August 19, 2017 (GMT -0600)
Limon Municipal

Weather History for KLIC - April, 2013

Change the Weather History Date:

Thursday, April 11, 2013

  Actual Average Record
Temperature  
Mean Temperature 27 °F -  
Max Temperature 48 °F - 79 °F (1998)
Min Temperature 6 °F - 6 °F (2013)
Degree Days  
Heating Degree Days 38    
Month to date heating degree days 312  
Cooling Degree Days 0    
Month to date cooling degree days 0  
Moisture  
Dew Point 22 °F    
Average Humidity 69    
Maximum Humidity 92    
Minimum Humidity 45    
Precipitation  
Precipitation T in - 1.81 in (2001)
Month to date precipitation 0.02  
Year to date precipitation 2.12  
Sea Level Pressure  
Sea Level Pressure 29.86 in    
Wind  
Wind Speed 8 mph (North)    
Max Wind Speed 28 mph    
Max Gust Speed 39 mph    
Visibility 10 miles    
Events Rain    
T = Trace of Precipitation, MM = Missing Value Source: NWS Daily Summary

Daily Weather History Graph

Daily Weather History Graph

Search for Another Location

Airport or City:

Trip Planner

Search our weather history database for the weather conditions in past years. The results will help you decide how hot, cold, wet, or windy it might be!

Date:

Astronomy

Apr. 11, 2013 Rise Set
Actual Time 6:23 AM MDT 7:28 PM MDT
Civil Twilight 5:55 AM MDT 7:56 PM MDT
Nautical Twilight 5:23 AM MDT 8:29 PM MDT
Astronomical Twilight 4:48 AM MDT 9:03 PM MDT
Moon 6:56 AM MDT (4/11) 9:04 PM MDT (4/11)
Length of Visible Light 14h 00m
Length of Day
13h 05m
New Moon, 2% of the Moon is Illuminated
Apr 11
New Moon
Apr 18
First Quarter
Apr 25
Full
May 2
Last Quarter
May 9
New

Hourly Weather History & Observations

Time (MDT) Temp. Windchill Dew Point Humidity Pressure Visibility Wind Dir Wind Speed Gust Speed Precip Events Conditions
12:55 AM 6.1 °F -0.9 °F 3.9 °F 91% 30.03 in 10.0 mi NNW 3.5 mph - N/A   Clear
1:55 AM 7.0 °F - 3.9 °F 87% 29.98 in 10.0 mi Calm Calm - N/A   Clear
2:55 AM 10.0 °F -0.9 °F 7.0 °F 87% 29.91 in 10.0 mi NNE 6.9 mph - N/A   Clear
3:55 AM 10.9 °F 4.7 °F 8.1 °F 88% 29.89 in 10.0 mi NNW 3.5 mph - N/A   Mostly Cloudy
4:55 AM 12.0 °F 2.7 °F 9.0 °F 88% 29.86 in 10.0 mi North 5.8 mph - N/A   Mostly Cloudy
5:55 AM 15.1 °F 5.2 °F 12.0 °F 88% 29.84 in 10.0 mi North 6.9 mph - N/A   Overcast
6:55 AM 21.9 °F - 17.1 °F 82% 29.81 in 10.0 mi Calm Calm - N/A   Overcast
7:55 AM 28.0 °F - 21.0 °F 75% 29.82 in 10.0 mi Calm Calm - N/A   Overcast
8:55 AM 36.0 °F 29.0 °F 21.9 °F 57% 29.80 in 10.0 mi West 9.2 mph - N/A   Partly Cloudy
9:55 AM 42.1 °F 34.9 °F 23.0 °F 47% 29.80 in 10.0 mi NW 13.8 mph - N/A   Mostly Cloudy
11:55 AM 43.0 °F 34.8 °F 27.0 °F 53% 29.85 in 10.0 mi North 18.4 mph 26.5 mph N/A   Overcast
12:55 PM 44.1 °F 36.8 °F 28.9 °F 55% 29.86 in 10.0 mi NNW 16.1 mph 24.2 mph 0.00 in Rain Light Rain
1:55 PM 46.9 °F - 30.0 °F 52% 29.85 in 10.0 mi North 19.6 mph 31.1 mph 0.00 in   Overcast
2:55 PM 48.0 °F - 30.0 °F 50% 29.83 in 10.0 mi NNW 21.9 mph 32.2 mph N/A   Scattered Clouds
3:55 PM 46.0 °F 38.3 °F 30.0 °F 54% 29.83 in 10.0 mi North 20.7 mph 34.5 mph N/A   Scattered Clouds
4:55 PM 46.9 °F - 30.9 °F 54% 29.83 in 10.0 mi North 19.6 mph 31.1 mph N/A   Partly Cloudy
5:55 PM 45.0 °F 37.6 °F 30.9 °F 58% 29.86 in 10.0 mi North 17.3 mph 33.4 mph N/A   Mostly Cloudy
6:55 PM 42.1 °F 34.9 °F 30.0 °F 62% 29.85 in 10.0 mi North 13.8 mph 33.4 mph N/A   Mostly Cloudy
7:55 PM 39.9 °F 34.5 °F 30.0 °F 68% 29.86 in 10.0 mi NNE 8.1 mph - N/A   Overcast
8:55 PM 35.1 °F 29.3 °F 28.9 °F 78% 29.86 in 10.0 mi NNE 6.9 mph - N/A   Overcast
9:55 PM 32.0 °F 23.6 °F 28.0 °F 85% 29.88 in 10.0 mi NNW 10.4 mph - N/A   Partly Cloudy
10:55 PM 35.1 °F 27.4 °F 28.0 °F 76% 29.86 in 10.0 mi NNW 10.4 mph - N/A   Mostly Cloudy
11:55 PM 28.0 °F - 26.1 °F 92% 29.91 in 10.0 mi Calm Calm - N/A   Scattered Clouds